User: anonymous   Login
Location: Newark
(54.6833°N, 25.2833°E)
Time: 20:15:51
(UTC+00:00)
Language:

SR - Orbit

View from above orbital plane
View from above orbital plane
View from above satellite
View from above satellite

Ground track
Ground track

The orbit data is extracted from the following two-line orbital elements,

1    46U 60007B   19325.91637410 -.00000037 +00000-0 +15867-4 0  9996
2    46 066.6907 249.9884 0217277 286.0608 071.6672 14.49259199108894
Epoch (UTC): 21 November 2019 21:59:34
Eccentricity: 0.0217277
inclination: 66.6907°
perigee height: 573 km
apogee height: 882 km
right ascension of ascending node: 249.9884°
argument of perigee: 286.0608°
revolutions per day: 14.49259199
mean anomaly at epoch: 71.6672°
orbit number at epoch: 10889

The dashed part of the orbit path shows where the satellite is in the earth's shadow,  

DLR